Location: Bauerbach
(50.4985°N, 10.3912°E)
Time: 09:19:28
(UTC+00:00)

IRS-1C - Pass Details

Date: 13 January 2026
Orbit: 813 x 814 km, 99.0° (Epoch: 14 February)

Event Time Altitude Azimuth Distance (km) Brightness Sun altitude
Rises 06:16:20 0° 15° (NNE) 3,351 7.2 -9.0°
Reaches altitude 10° 06:18:41 10° 16° (NNE) 2,415 6.5 -8.6°
Maximum altitude 06:24:03 89° 107° (ESE) 821 4.2 -7.9°
Drops below altitude 10° 06:29:22 10° 197° (SSW) 2,397 6.7 -7.1°
Sets 06:31:41 0° 198° (SSW) 3,324 7.4 -6.8°
